Tracking 19280 objects as of 14-Nov-2018
HD Live streaming from Space Station
objects crossing your sky now

KIKU 2 (ETS 2)

Track KIKU 2 (ETS 2) now!
KIKU 2 (ETS 2) is classified as:


NORAD ID: 9852
Int'l Code: 1977-014A
Perigee: 35,845.8 km
Apogee: 35,884.8 km
Inclination: 11.7 °
Period: 1,439.8 minutes
Semi major axis: 42236 km
RCS: 1.9952 m2 (large)
Launch date: February 23, 1977
Source: Japan (JPN)
Launch site: TANEGASHIMA SPACE CENTER (TNSTA)
aabbcc
Your satellite tracking list
Your tracking list is empty




NASA's NSSDC Master Catalog

Two Line Element Set (TLE):
1  9852U 77014A   18317.69333208 +.00000067 +00000-0 +00000-0 0  9990
2  9852 011.6815 315.5719 0004610 316.9976 221.9192 01.00017150099493
Source of the keplerian elements: AFSPC